Location: Alfortville
(48.8058°N, 2.4204°E)
Time: 08:34:55
(UTC+00:00)

SO-50 - Visible Passes

Search period start: 11 February 2026 00:00
Search period end: 21 February 2026 00:00
Orbit: 569 x 673 km, 64.6° (Epoch: 10 February)

Date Brightness Start Highest point End Pass type
(mag) Time Alt. Az. Time Alt. Az. Time Alt. Az.
11 Feb ? 02:58:40 12° NE 02:58:40 12° NE 02:58:59 10° NE visible
11 Feb ? 04:35:50 25° N 04:35:50 25° N 04:38:46 10° NNE visible
11 Feb ? 06:13:57 10° NW 06:16:12 13° N 06:18:27 10° NNE visible
12 Feb ? 03:16:04 15° NE 03:16:04 15° NE 03:16:54 10° NE visible
12 Feb ? 04:53:14 20° NNW 04:53:14 20° NNW 04:56:28 10° NNE visible
12 Feb ? 06:32:51 10° NNW 06:34:45 12° N 06:36:39 10° NNE visible
13 Feb ? 03:33:26 17° NNE 03:33:26 17° NNE 03:34:41 10° NNE visible
13 Feb ? 05:10:36 15° NNW 05:11:21 15° NNW 05:14:12 10° NNE visible
14 Feb ? 03:50:47 18° N 03:50:47 18° N 03:52:23 10° NNE visible
14 Feb ? 05:27:56 11° NW 05:29:52 13° N 05:32:05 10° NNE visible
15 Feb ? 04:08:05 17° N 04:08:05 17° N 04:10:05 10° NNE visible
15 Feb ? 05:46:30 10° NNW 05:48:24 12° N 05:50:18 10° NNE visible
16 Feb ? 02:48:13 10° NNE 02:48:13 10° NNE 02:48:16 10° NNE visible
16 Feb ? 04:25:22 15° NNW 04:25:22 15° NNW 04:27:48 10° NNE visible
16 Feb ? 06:04:51 10° NNW 06:06:57 13° N 06:09:03 10° NNE visible
17 Feb ? 03:05:29 12° NNE 03:05:29 12° NNE 03:05:58 10° NNE visible
17 Feb ? 04:42:38 12° NNW 04:43:29 13° N 04:45:41 10° NNE visible
17 Feb ? 06:22:47 10° NNW 06:25:27 15° NNE 06:28:07 10° NE visible
18 Feb ? 03:22:44 13° NNE 03:22:44 13° NNE 03:23:39 10° NNE visible
18 Feb ? 05:00:08 10° NNW 05:02:01 12° N 05:03:55 10° NNE visible
19 Feb ? 03:39:59 14° N 03:39:59 14° N 03:41:22 10° NNE visible
19 Feb ? 05:18:26 10° NNW 05:20:33 13° N 05:22:40 10° NE visible
20 Feb ? 03:57:12 13° N 03:57:12 13° N 03:59:14 10° NNE visible
20 Feb ? 05:36:20 10° NNW 05:39:02 15° NNE 05:41:45 10° NE visible
